LiveATC.Net - Listen to live air traffic control over the Internet!

ICAO: CYBP  IATA: YBP   Airport: Brooks Airport
City: Brooks   State/Province: Alberta
Country: Canada   Continent: North America
CYYC METAR Weather: CYYC 230800Z 21007KT 1 1/2SM BR OVC004 M03/M04 A2961 RMK FG6SC2 SLP078
CYBP Flight Activity (FlightAware)
CYBP - Brooks
Feed Status: UP   Listeners: 0
Listen right in your browser - requires Flash (in browser, requires Flash)
Click here to listen with your own player (launches your MP3 player)
CYBP - Brooks Audio Archives
Brooks UNICOM122.800
Edmonton Center (North)132.650
Edmonton Center (South)125.050


Unauthorized use prohibited. See Terms of Service

Find LiveATC Audio Streams

Airport/ARTCC Code

Frequency Search
(e.g., 124.400, 128.75)
Site-wide search

Browse LiveATC Feeds
LiveATC Coverage Map
Top 50 LiveATC Feeds
Bad Weather Areas

Offer a LiveATC Feed
Press Inquiries

LiveATC on iPhone
LiveATC on Android

Windows Phone
Windows 8/10

LiveATC Mobile
(Mobile browser)

ATC Audio Archives
Interesting Recordings

LiveATC Forums

Home Page
Make a Donation
Terms of Use
Privacy Policy

Canadian Air Freqs


FAA Airport Status
Nat'l Airspace Status
Arrival Demand Charts

Server Software By: